| time (UTC) | temp C | wind direction | speed KPH | gust KPH | rain 1hr cm | rain 24hr cm | rain mn cm | humidity % | barometer mb |
| 20260508225048 | 21 | 360 | 19.3 | 0.0 | 0.00 | 0.00 | 0.00 | 30 | 1005.8 |
| 20260508224546 | 21 | 360 | 17.7 | 0.0 | 0.00 | 0.00 | 0.00 | 31 | 1005.8 |
| 20260508224045 | 21 | 360 | 17.7 | 0.0 | 0.00 | 0.00 | 0.00 | 31 | 1005.9 |
| 20260508223545 | 21 | 360 | 17.7 | 0.0 | 0.00 | 0.00 | 0.00 | 32 | 1006.1 |
| 20260508223050 | 20 | 360 | 17.7 | 0.0 | 0.00 | 0.00 | 0.00 | 32 | 1006.3 |
| 20260508222544 | 20 | 360 | 19.3 | 0.0 | 0.00 | 0.00 | 0.00 | 32 | 1006.4 |
| 20260508222044 | 20 | 360 | 20.9 | 0.0 | 0.00 | 0.00 | 0.00 | 32 | 1006.6 |
| 20260508221544 | 20 | 360 | 20.9 | 0.0 | 0.00 | 0.00 | 0.00 | 32 | 1006.7 |
| 20260508221144 | 20 | 360 | 27.4 | 0.0 | 0.00 | 0.00 | 0.00 | 32 | 1006.8 |
| 20260508220544 | 20 | 360 | 30.6 | 0.0 | 0.00 | 0.00 | 0.00 | 32 | 1006.8 |
| 20260508220046 | 20 | 360 | 30.6 | 0.0 | 0.00 | 0.00 | 0.00 | 31 | 1006.9 |
| 20260508215544 | 20 | 360 | 30.6 | 0.0 | 0.00 | 0.00 | 0.00 | 29 | 1006.7 |
| 20260508215044 | 20 | 360 | 33.8 | 0.0 | 0.00 | 0.00 | 0.00 | 29 | 1006.7 |
| 20260508214553 | 20 | 360 | 29.0 | 0.0 | 0.00 | 0.00 | 0.00 | 28 | 1006.6 |
| 20260508214044 | 21 | 360 | 27.4 | 0.0 | 0.00 | 0.00 | 0.00 | 25 | 1006.4 |
| 20260508213544 | 21 | 360 | 29.0 | 0.0 | 0.00 | 0.00 | 0.00 | 24 | 1006.2 |
| 20260508213043 | 22 | 360 | 27.4 | 0.0 | 0.00 | 0.00 | 0.00 | 21 | 1006.1 |
| 20260508212543 | 23 | 360 | 27.4 | 0.0 | 0.00 | 0.00 | 0.00 | 22 | 1006.1 |
| 20260508212042 | 23 | 360 | 25.7 | 0.0 | 0.00 | 0.00 | 0.00 | 22 | 1006.0 |
| 20260508211543 | 23 | 360 | 24.1 | 0.0 | 0.00 | 0.00 | 0.00 | 23 | 1006.1 |
| 20260508211142 | 23 | 360 | 27.4 | 0.0 | 0.00 | 0.00 | 0.00 | 22 | 1006.2 |
| 20260508210541 | 23 | 360 | 27.4 | 0.0 | 0.00 | 0.00 | 0.00 | 22 | 1006.3 |
| 20260508210041 | 22 | 360 | 25.7 | 0.0 | 0.00 | 0.00 | 0.00 | 22 | 1006.2 |
| 20260508205539 | 23 | 360 | 25.7 | 0.0 | 0.00 | 0.00 | 0.00 | 22 | 1006.4 |
| 20260508205039 | 23 | 360 | 24.1 | 0.0 | 0.00 | 0.00 | 0.00 | 23 | 1006.4 |
| 20260508204543 | 23 | 360 | 25.7 | 0.0 | 0.00 | 0.00 | 0.00 | 23 | 1006.6 |
| 20260508204040 | 23 | 360 | 25.7 | 0.0 | 0.00 | 0.00 | 0.00 | 23 | 1006.6 |
| 20260508203537 | 22 | 360 | 24.1 | 0.0 | 0.00 | 0.00 | 0.00 | 23 | 1006.6 |
| 20260508203037 | 23 | 360 | 22.5 | 0.0 | 0.00 | 0.00 | 0.00 | 22 | 1006.8 |
| 20260508202537 | 22 | 360 | 22.5 | 0.0 | 0.00 | 0.00 | 0.00 | 25 | 1006.9 |
| 20260508202038 | 22 | 360 | 25.7 | 0.0 | 0.00 | 0.00 | 0.00 | 23 | 1007.1 |
| 20260508201538 | 23 | 360 | 25.7 | 0.0 | 0.00 | 0.00 | 0.00 | 24 | 1007.0 |
| 20260508201134 | 22 | 360 | 22.5 | 0.0 | 0.00 | 0.00 | 0.00 | 24 | 1007.0 |
| 20260508200538 | 22 | 360 | 20.9 | 0.0 | 0.00 | 0.00 | 0.00 | 24 | 1007.2 |
| 20260508200034 | 23 | 360 | 22.5 | 0.0 | 0.00 | 0.00 | 0.00 | 24 | 1007.3 |
| 20260508195532 | 22 | 360 | 20.9 | 0.0 | 0.00 | 0.00 | 0.00 | 24 | 1007.6 |
| 20260508195032 | 22 | 360 | 20.9 | 0.0 | 0.00 | 0.00 | 0.00 | 24 | 1007.6 |
| 20260508194532 | 22 | 360 | 24.1 | 0.0 | 0.00 | 0.00 | 0.00 | 23 | 1007.7 |
| 20260508194033 | 22 | 360 | 24.1 | 0.0 | 0.00 | 0.00 | 0.00 | 24 | 1007.8 |
| 20260508193531 | 22 | 360 | 20.9 | 0.0 | 0.00 | 0.00 | 0.00 | 24 | 1007.8 |
| 20260508193033 | 22 | 360 | 19.3 | 0.0 | 0.00 | 0.00 | 0.00 | 24 | 1007.8 |
| 20260508192530 | 22 | 360 | 17.7 | 0.0 | 0.00 | 0.00 | 0.00 | 24 | 1008.0 |
| 20260508192029 | 22 | 360 | 17.7 | 0.0 | 0.00 | 0.00 | 0.00 | 25 | 1008.0 |
| 20260508191532 | 21 | 360 | 19.3 | 0.0 | 0.00 | 0.00 | 0.00 | 26 | 1008.1 |
| 20260508191129 | 22 | 360 | 20.9 | 0.0 | 0.00 | 0.00 | 0.00 | 25 | 1008.2 |
| 20260508190529 | 22 | 360 | 20.9 | 0.0 | 0.00 | 0.00 | 0.00 | 25 | 1008.3 |
| 20260508190030 | 22 | 360 | 19.3 | 0.0 | 0.00 | 0.00 | 0.00 | 25 | 1008.4 |
| 20260508185529 | 21 | 360 | 17.7 | 0.0 | 0.00 | 0.00 | 0.00 | 25 | 1008.4 |
| 20260508185028 | 21 | 360 | 17.7 | 0.0 | 0.00 | 0.00 | 0.00 | 26 | 1008.4 |
| 20260508184531 | 22 | 360 | 19.3 | 0.0 | 0.00 | 0.00 | 0.00 | 25 | 1008.4 |
| 20260508184027 | 21 | 360 | 20.9 | 0.0 | 0.00 | 0.00 | 0.00 | 25 | 1008.5 |
| 20260508183531 | 20 | 360 | 20.9 | 0.0 | 0.00 | 0.00 | 0.00 | 26 | 1008.7 |
| 20260508183027 | 20 | 360 | 17.7 | 0.0 | 0.00 | 0.00 | 0.00 | 25 | 1008.7 |
| 20260508182527 | 21 | 360 | 17.7 | 0.0 | 0.00 | 0.00 | 0.00 | 25 | 1008.9 |
| 20260508182029 | 21 | 360 | 16.1 | 0.0 | 0.00 | 0.00 | 0.00 | 25 | 1009.1 |
| 20260508181526 | 21 | 360 | 14.5 | 0.0 | 0.00 | 0.00 | 0.00 | 25 | 1009.1 |
| 20260508181127 | 20 | 360 | 14.5 | 0.0 | 0.00 | 0.00 | 0.00 | 26 | 1009.3 |
| 20260508180525 | 20 | 360 | 16.1 | 0.0 | 0.00 | 0.00 | 0.00 | 25 | 1009.3 |
| 20260508180026 | 20 | 360 | 17.7 | 0.0 | 0.00 | 0.00 | 0.00 | 26 | 1009.4 |
| 20260508175524 | 20 | 360 | 14.5 | 0.0 | 0.00 | 0.00 | 0.00 | 26 | 1009.4 |
| 20260508175024 | 20 | 360 | 12.9 | 0.0 | 0.00 | 0.00 | 0.00 | 26 | 1009.4 |
| 20260508174524 | 20 | 360 | 12.9 | 0.0 | 0.00 | 0.00 | 0.00 | 26 | 1009.6 |
| 20260508174023 | 20 | 360 | 14.5 | 0.0 | 0.00 | 0.00 | 0.00 | 26 | 1009.7 |
| 20260508173524 | 20 | 360 | 14.5 | 0.0 | 0.00 | 0.00 | 0.00 | 26 | 1009.8 |
| 20260508173022 | 20 | 360 | 14.5 | 0.0 | 0.00 | 0.00 | 0.00 | 29 | 1009.9 |
| 20260508172522 | 20 | 360 | 14.5 | 0.0 | 0.00 | 0.00 | 0.00 | 28 | 1010.1 |
| 20260508172027 | 20 | 360 | 16.1 | 0.0 | 0.00 | 0.00 | 0.00 | 29 | 1010.1 |
| 20260508171523 | 20 | 360 | 16.1 | 0.0 | 0.00 | 0.00 | 0.00 | 28 | 1010.2 |
| 20260508171121 | 19 | 360 | 14.5 | 0.0 | 0.00 | 0.00 | 0.00 | 29 | 1010.4 |
| 20260508170521 | 19 | 360 | 14.5 | 0.0 | 0.00 | 0.00 | 0.00 | 28 | 1010.3 |
| 20260508170019 | 18 | 360 | 16.1 | 0.0 | 0.00 | 0.00 | 0.00 | 30 | 1010.5 |
| 20260508165518 | 18 | 360 | 16.1 | 0.0 | 0.00 | 0.00 | 0.00 | 30 | 1010.5 |
| 20260508165018 | 18 | 360 | 12.9 | 0.0 | 0.00 | 0.00 | 0.00 | 30 | 1010.5 |
| 20260508164517 | 18 | 360 | 12.9 | 0.0 | 0.00 | 0.00 | 0.00 | 31 | 1010.6 |
| 20260508164017 | 18 | 360 | 12.9 | 0.0 | 0.00 | 0.00 | 0.00 | 31 | 1010.7 |
| 20260508163516 | 18 | 360 | 11.3 | 0.0 | 0.00 | 0.00 | 0.00 | 31 | 1010.7 |
| 20260508163015 | 17 | 360 | 11.3 | 0.0 | 0.00 | 0.00 | 0.00 | 32 | 1010.7 |
| 20260508162514 | 17 | 360 | 9.7 | 0.0 | 0.00 | 0.00 | 0.00 | 32 | 1010.8 |
| 20260508162015 | 17 | 360 | 8.0 | 0.0 | 0.00 | 0.00 | 0.00 | 31 | 1010.9 |
| 20260508161514 | 17 | 360 | 9.7 | 0.0 | 0.00 | 0.00 | 0.00 | 33 | 1011.0 |
| 20260508161116 | 17 | 360 | 9.7 | 0.0 | 0.00 | 0.00 | 0.00 | 31 | 1010.9 |
| 20260508160511 | 17 | 360 | 9.7 | 0.0 | 0.00 | 0.00 | 0.00 | 32 | 1011.0 |
| 20260508160025 | 17 | 360 | 9.7 | 0.0 | 0.00 | 0.00 | 0.00 | 33 | 1011.0 |
| 20260508155510 | 17 | 360 | 9.7 | 0.0 | 0.00 | 0.00 | 0.00 | 32 | 1011.1 |
| 20260508155010 | 16 | 360 | 11.3 | 0.0 | 0.00 | 0.00 | 0.00 | 33 | 1011.1 |
| 20260508154510 | 16 | 360 | 11.3 | 0.0 | 0.00 | 0.00 | 0.00 | 34 | 1011.1 |
| 20260508154008 | 16 | 360 | 9.7 | 0.0 | 0.00 | 0.00 | 0.00 | 34 | 1011.2 |
| 20260508153508 | 16 | 360 | 11.3 | 0.0 | 0.00 | 0.00 | 0.00 | 34 | 1011.2 |
| 20260508153006 | 16 | 360 | 12.9 | 0.0 | 0.00 | 0.00 | 0.00 | 35 | 1011.3 |
| 20260508152509 | 16 | 360 | 14.5 | 0.0 | 0.00 | 0.00 | 0.00 | 35 | 1011.4 |
| 20260508152007 | 16 | 360 | 14.5 | 0.0 | 0.00 | 0.00 | 0.00 | 36 | 1011.4 |
| 20260508151508 | 15 | 360 | 12.9 | 0.0 | 0.00 | 0.00 | 0.00 | 36 | 1011.3 |
| 20260508151104 | 15 | 360 | 12.9 | 0.0 | 0.00 | 0.00 | 0.00 | 37 | 1011.3 |
| 20260508150505 | 15 | 360 | 11.3 | 0.0 | 0.00 | 0.00 | 0.00 | 37 | 1011.3 |
| 20260508150006 | 15 | 360 | 11.3 | 0.0 | 0.00 | 0.00 | 0.00 | 37 | 1011.4 |
| 20260508145503 | 14 | 360 | 14.5 | 0.0 | 0.00 | 0.00 | 0.00 | 38 | 1011.3 |
| 20260508145002 | 14 | 360 | 12.9 | 0.0 | 0.00 | 0.00 | 0.00 | 39 | 1011.3 |
| 20260508144502 | 14 | 360 | 12.9 | 0.0 | 0.00 | 0.00 | 0.00 | 39 | 1011.4 |
| 20260508144002 | 14 | 360 | 12.9 | 0.0 | 0.00 | 0.00 | 0.00 | 39 | 1011.4 |
| 20260508143600 | 14 | 360 | 12.9 | 0.0 | 0.00 | 0.00 | 0.00 | 38 | 1011.6 |
| 20260508143108 | 13 | 360 | 11.3 | 0.0 | 0.00 | 0.00 | 0.00 | 38 | 1011.5 |
| 20260508142558 | 13 | 360 | 11.3 | 0.0 | 0.00 | 0.00 | 0.00 | 39 | 1011.5 |
| 20260508142059 | 13 | 360 | 11.3 | 0.0 | 0.00 | 0.00 | 0.00 | 39 | 1011.5 |
| 20260508141605 | 13 | 360 | 12.9 | 0.0 | 0.00 | 0.00 | 0.00 | 40 | 1011.5 |
| 20260508141054 | 12 | 360 | 11.3 | 0.0 | 0.00 | 0.00 | 0.00 | 41 | 1011.4 |
| 20260508140555 | 12 | 360 | 11.3 | 0.0 | 0.00 | 0.00 | 0.00 | 41 | 1011.4 |
| 20260508140054 | 12 | 360 | 9.7 | 0.0 | 0.00 | 0.00 | 0.00 | 43 | 1011.4 |
| 20260508135553 | 11 | 360 | 9.7 | 0.0 | 0.00 | 0.00 | 0.00 | 46 | 1011.4 |
| 20260508135052 | 12 | 360 | 9.7 | 0.0 | 0.00 | 0.00 | 0.00 | 46 | 1011.4 |
| 20260508134551 | 11 | 360 | 8.0 | 0.0 | 0.00 | 0.00 | 0.00 | 46 | 1011.4 |
| 20260508134049 | 11 | 360 | 8.0 | 0.0 | 0.00 | 0.00 | 0.00 | 47 | 1011.4 |
| 20260508133548 | 11 | 360 | 6.4 | 0.0 | 0.00 | 0.00 | 0.00 | 50 | 1011.3 |
| 20260508133055 | 10 | 360 | 6.4 | 0.0 | 0.00 | 0.00 | 0.00 | 52 | 1011.4 |
| 20260508132545 | 10 | 360 | 6.4 | 0.0 | 0.00 | 0.00 | 0.00 | 53 | 1011.4 |
| 20260508132044 | 10 | 360 | 6.4 | 0.0 | 0.00 | 0.00 | 0.00 | 55 | 1011.4 |
| 20260508131544 | 9 | 360 | 4.8 | 0.0 | 0.00 | 0.00 | 0.00 | 58 | 1011.5 |
| 20260508131046 | 7 | 360 | 3.2 | 0.0 | 0.00 | 0.00 | 0.00 | 65 | 1011.5 |
| 20260508130543 | 7 | 360 | 3.2 | 0.0 | 0.00 | 0.00 | 0.00 | 65 | 1011.4 |
| 20260508130047 | 7 | 360 | 4.8 | 0.0 | 0.00 | 0.00 | 0.00 | 67 | 1011.4 |
| 20260508125541 | 6 | 360 | 4.8 | 0.0 | 0.00 | 0.00 | 0.00 | 69 | 1011.4 |
| 20260508125040 | 6 | 360 | 6.4 | 0.0 | 0.00 | 0.00 | 0.00 | 71 | 1011.4 |
| 20260508124540 | 6 | 360 | 6.4 | 0.0 | 0.00 | 0.00 | 0.00 | 72 | 1011.3 |
| 20260508124040 | 5 | 360 | 6.4 | 0.0 | 0.00 | 0.00 | 0.00 | 74 | 1011.3 |
| 20260508123539 | 4 | 360 | 6.4 | 0.0 | 0.00 | 0.00 | 0.00 | 75 | 1011.3 |
| 20260508123039 | 3 | 360 | 6.4 | 0.0 | 0.00 | 0.00 | 0.00 | 77 | 1011.3 |
| 20260508122538 | 3 | 360 | 4.8 | 0.0 | 0.00 | 0.00 | 0.00 | 78 | 1011.2 |
| 20260508122039 | 3 | 360 | 4.8 | 0.0 | 0.00 | 0.00 | 0.00 | 78 | 1011.2 |
| 20260508121555 | 2 | 360 | 4.8 | 0.0 | 0.00 | 0.00 | 0.00 | 79 | 1011.1 |
| 20260508121036 | 2 | 360 | 4.8 | 0.0 | 0.00 | 0.00 | 0.00 | 80 | 1011.0 |
| 20260508120537 | 1 | 360 | 4.8 | 0.0 | 0.00 | 0.00 | 0.00 | 80 | 1011.0 |
| 20260508120038 | 1 | 360 | 4.8 | 0.0 | 0.00 | 0.00 | 0.00 | 80 | 1010.9 |
| 20260508115539 | 1 | 360 | 4.8 | 0.0 | 0.00 | 0.00 | 0.00 | 80 | 1010.9 |
| 20260508115035 | 1 | 360 | 4.8 | 0.0 | 0.00 | 0.00 | 0.00 | 80 | 1010.7 |
| 20260508114537 | 1 | 360 | 4.8 | 0.0 | 0.00 | 0.00 | 0.00 | 81 | 1010.6 |
| 20260508114035 | 1 | 360 | 6.4 | 0.0 | 0.00 | 0.00 | 0.00 | 81 | 1010.7 |
| 20260508113539 | 1 | 360 | 6.4 | 0.0 | 0.00 | 0.00 | 0.00 | 82 | 1010.5 |
| 20260508113033 | 0 | 360 | 4.8 | 0.0 | 0.00 | 0.00 | 0.00 | 81 | 1010.5 |
| 20260508112533 | 0 | 360 | 4.8 | 0.0 | 0.00 | 0.00 | 0.00 | 81 | 1010.3 |
| 20260508112031 | 0 | 360 | 4.8 | 0.0 | 0.00 | 0.00 | 0.00 | 81 | 1010.3 |
| 20260508111531 | 0 | 360 | 4.8 | 0.0 | 0.00 | 0.00 | 0.00 | 80 | 1010.1 |
| 20260508111030 | 1 | 360 | 4.8 | 0.0 | 0.00 | 0.00 | 0.00 | 81 | 1010.1 |
| 20260508110529 | 1 | 360 | 4.8 | 0.0 | 0.00 | 0.00 | 0.00 | 81 | 1010.1 |
| 20260508110036 | 1 | 360 | 3.2 | 0.0 | 0.00 | 0.00 | 0.00 | 81 | 1010.1 |
| 20260508105529 | 1 | 360 | 3.2 | 0.0 | 0.00 | 0.00 | 0.00 | 80 | 1010.0 |
| 20260508105029 | 1 | 360 | 3.2 | 0.0 | 0.00 | 0.00 | 0.00 | 79 | 1010.0 |
| 20260508104527 | 1 | 360 | 1.6 | 0.0 | 0.00 | 0.00 | 0.00 | 79 | 1009.9 |
| 20260508104027 | 1 | 360 | 0.0 | 0.0 | 0.00 | 0.00 | 0.00 | 79 | 1009.8 |
| 20260508103526 | 1 | 360 | 1.6 | 0.0 | 0.00 | 0.00 | 0.00 | 79 | 1009.8 |
| 20260508103026 | 1 | 360 | 3.2 | 0.0 | 0.00 | 0.00 | 0.00 | 79 | 1009.8 |
| 20260508102525 | 1 | 360 | 4.8 | 0.0 | 0.00 | 0.00 | 0.00 | 79 | 1009.8 |
| 20260508102025 | 1 | 360 | 6.4 | 0.0 | 0.00 | 0.00 | 0.00 | 78 | 1009.8 |
| 20260508101524 | 1 | 360 | 6.4 | 0.0 | 0.00 | 0.00 | 0.00 | 78 | 1009.7 |
| 20260508101025 | 1 | 360 | 4.8 | 0.0 | 0.00 | 0.00 | 0.00 | 75 | 1009.5 |
| 20260508100523 | 1 | 360 | 4.8 | 0.0 | 0.00 | 0.00 | 0.00 | 75 | 1009.5 |
| 20260508100022 | 1 | 360 | 4.8 | 0.0 | 0.00 | 0.00 | 0.00 | 73 | 1009.5 |
| 20260508095525 | 2 | 360 | 6.4 | 0.0 | 0.00 | 0.00 | 0.00 | 73 | 1009.5 |
| 20260508095022 | 2 | 360 | 6.4 | 0.0 | 0.00 | 0.00 | 0.00 | 72 | 1009.4 |
| 20260508094525 | 2 | 360 | 6.4 | 0.0 | 0.00 | 0.00 | 0.00 | 70 | 1009.3 |
| 20260508094019 | 2 | 360 | 4.8 | 0.0 | 0.00 | 0.00 | 0.00 | 69 | 1009.2 |
| 20260508093520 | 3 | 360 | 3.2 | 0.0 | 0.00 | 0.00 | 0.00 | 70 | 1009.2 |
| 20260508093023 | 3 | 360 | 1.6 | 0.0 | 0.00 | 0.00 | 0.00 | 69 | 1009.1 |
| 20260508092519 | 3 | 360 | 1.6 | 0.0 | 0.00 | 0.00 | 0.00 | 69 | 1009.1 |
| 20260508092019 | 3 | 360 | 1.6 | 0.0 | 0.00 | 0.00 | 0.00 | 68 | 1009.2 |
| 20260508091518 | 3 | 360 | 3.2 | 0.0 | 0.00 | 0.00 | 0.00 | 66 | 1009.1 |
| 20260508091018 | 3 | 360 | 4.8 | 0.0 | 0.00 | 0.00 | 0.00 | 65 | 1008.9 |
| 20260508090523 | 3 | 360 | 4.8 | 0.0 | 0.00 | 0.00 | 0.00 | 65 | 1008.9 |
| 20260508090018 | 4 | 360 | 4.8 | 0.0 | 0.00 | 0.00 | 0.00 | 63 | 1008.9 |
| 20260508085524 | 5 | 360 | 6.4 | 0.0 | 0.00 | 0.00 | 0.00 | 61 | 1008.9 |
| 20260508085017 | 5 | 360 | 9.7 | 0.0 | 0.00 | 0.00 | 0.00 | 61 | 1008.9 |
| 20260508084518 | 6 | 360 | 12.9 | 0.0 | 0.00 | 0.00 | 0.00 | 61 | 1008.9 |
| 20260508084017 | 6 | 360 | 12.9 | 0.0 | 0.00 | 0.00 | 0.00 | 63 | 1008.8 |
| 20260508083516 | 8 | 360 | 12.9 | 0.0 | 0.00 | 0.00 | 0.00 | 67 | 1008.7 |
| 20260508083046 | 8 | 360 | 14.5 | 0.0 | 0.00 | 0.00 | 0.00 | 68 | 1008.5 |
| 20260508082515 | 8 | 360 | 12.9 | 0.0 | 0.00 | 0.00 | 0.00 | 69 | 1008.4 |
| 20260508082020 | 8 | 360 | 9.7 | 0.0 | 0.00 | 0.00 | 0.00 | 70 | 1008.2 |
| 20260508081514 | 8 | 360 | 6.4 | 0.0 | 0.00 | 0.00 | 0.00 | 70 | 1008.0 |
| 20260508081114 | 7 | 360 | 4.8 | 0.0 | 0.00 | 0.00 | 0.00 | 70 | 1007.9 |
| 20260508080511 | 7 | 360 | 4.8 | 0.0 | 0.00 | 0.00 | 0.00 | 71 | 1008.0 |
| 20260508080010 | 6 | 360 | 1.6 | 0.0 | 0.00 | 0.00 | 0.00 | 66 | 1008.1 |
| 20260508075509 | 5 | 360 | 0.0 | 0.0 | 0.00 | 0.00 | 0.00 | 65 | 1008.1 |
| 20260508075007 | 5 | 360 | 0.0 | 0.0 | 0.00 | 0.00 | 0.00 | 65 | 1008.0 |
| 20260508074506 | 4 | 360 | 0.0 | 0.0 | 0.00 | 0.00 | 0.00 | 65 | 1008.1 |
| 20260508074007 | 3 | 360 | 1.6 | 0.0 | 0.00 | 0.00 | 0.00 | 66 | 1008.2 |
| 20260508073502 | 3 | 360 | 0.0 | 0.0 | 0.00 | 0.00 | 0.00 | 65 | 1008.2 |
| 20260508073003 | 2 | 360 | 0.0 | 0.0 | 0.00 | 0.00 | 0.00 | 63 | 1008.2 |
| 20260508072602 | 1 | 360 | 0.0 | 0.0 | 0.00 | 0.00 | 0.00 | 62 | 1008.2 |
| 20260508072100 | 1 | 360 | 1.6 | 0.0 | 0.00 | 0.00 | 0.00 | 61 | 1008.3 |
| 20260508071600 | 1 | 360 | 1.6 | 0.0 | 0.00 | 0.00 | 0.00 | 59 | 1008.3 |
| 20260508071059 | 1 | 360 | 0.0 | 0.0 | 0.00 | 0.00 | 0.00 | 59 | 1008.4 |
| 20260508065559 | 1 | 360 | 1.6 | 0.0 | 0.00 | 0.00 | 0.00 | 58 | 1008.6 |
| 20260508065056 | 1 | 360 | 0.0 | 0.0 | 0.00 | 0.00 | 0.00 | 58 | 1008.6 |
| 20260508064609 | 1 | 360 | 0.0 | 0.0 | 0.00 | 0.00 | 0.00 | 58 | 1008.7 |
| 20260508064055 | 1 | 360 | 0.0 | 0.0 | 0.00 | 0.00 | 0.00 | 59 | 1008.6 |
| 20260508063554 | 1 | 360 | 0.0 | 0.0 | 0.00 | 0.00 | 0.00 | 60 | 1008.8 |
| 20260508063052 | 0 | 360 | 0.0 | 0.0 | 0.00 | 0.00 | 0.00 | 59 | 1008.7 |
| 20260508062553 | 0 | 360 | 0.0 | 0.0 | 0.00 | 0.00 | 0.00 | 58 | 1008.8 |
| 20260508062052 | 1 | 360 | 0.0 | 0.0 | 0.00 | 0.00 | 0.00 | 56 | 1008.8 |
| 20260508061551 | 1 | 360 | 0.0 | 0.0 | 0.00 | 0.00 | 0.00 | 56 | 1008.8 |
| 20260508061051 | 1 | 360 | 0.0 | 0.0 | 0.00 | 0.00 | 0.00 | 56 | 1008.9 |
| 20260508060050 | 1 | 360 | 0.0 | 0.0 | 0.00 | 0.00 | 0.00 | 56 | 1009.1 |
| 20260508055552 | 1 | 360 | 0.0 | 0.0 | 0.00 | 0.00 | 0.00 | 56 | 1009.0 |
| 20260508055051 | 1 | 360 | 0.0 | 0.0 | 0.00 | 0.00 | 0.00 | 57 | 1009.1 |
| 20260508054555 | 1 | 360 | 0.0 | 0.0 | 0.00 | 0.00 | 0.00 | 57 | 1009.1 |
| 20260508054055 | 1 | 360 | 0.0 | 0.0 | 0.00 | 0.00 | 0.00 | 57 | 1009.1 |
| 20260508053550 | 1 | 360 | 0.0 | 0.0 | 0.00 | 0.00 | 0.00 | 56 | 1009.1 |
| 20260508053050 | 1 | 360 | 0.0 | 0.0 | 0.00 | 0.00 | 0.00 | 56 | 1009.2 |
| 20260508052550 | 1 | 360 | 0.0 | 0.0 | 0.00 | 0.00 | 0.00 | 55 | 1009.2 |
| 20260508052050 | 1 | 360 | 0.0 | 0.0 | 0.00 | 0.00 | 0.00 | 53 | 1009.2 |
| 20260508051550 | 2 | 360 | 0.0 | 0.0 | 0.00 | 0.00 | 0.00 | 52 | 1009.2 |
| 20260508051050 | 2 | 360 | 0.0 | 0.0 | 0.00 | 0.00 | 0.00 | 52 | 1009.2 |
| 20260508050052 | 2 | 360 | 0.0 | 0.0 | 0.00 | 0.00 | 0.00 | 52 | 1009.1 |
| 20260508045554 | 2 | 360 | 0.0 | 0.0 | 0.00 | 0.00 | 0.00 | 51 | 1009.2 |
| 20260508045054 | 2 | 360 | 0.0 | 0.0 | 0.00 | 0.00 | 0.00 | 49 | 1009.2 |
| 20260508044550 | 3 | 360 | 0.0 | 0.0 | 0.00 | 0.00 | 0.00 | 49 | 1009.2 |
| 20260508044052 | 3 | 360 | 0.0 | 0.0 | 0.00 | 0.00 | 0.00 | 50 | 1009.2 |
| 20260508043549 | 3 | 360 | 0.0 | 0.0 | 0.00 | 0.00 | 0.00 | 50 | 1009.2 |
| 20260508043050 | 3 | 360 | 0.0 | 0.0 | 0.00 | 0.00 | 0.00 | 48 | 1009.2 |
| 20260508042550 | 4 | 360 | 0.0 | 0.0 | 0.00 | 0.00 | 0.00 | 47 | 1009.2 |
| 20260508042051 | 5 | 360 | 0.0 | 0.0 | 0.00 | 0.00 | 0.00 | 45 | 1009.3 |
| 20260508041552 | 5 | 360 | 0.0 | 0.0 | 0.00 | 0.00 | 0.00 | 47 | 1009.3 |
| 20260508041050 | 5 | 360 | 0.0 | 0.0 | 0.00 | 0.00 | 0.00 | 47 | 1009.2 |
| 20260508040049 | 5 | 360 | 1.6 | 0.0 | 0.00 | 0.00 | 0.00 | 45 | 1009.4 |
| 20260508035550 | 6 | 360 | 1.6 | 0.0 | 0.00 | 0.00 | 0.00 | 44 | 1009.4 |
| 20260508035049 | 6 | 360 | 0.0 | 0.0 | 0.00 | 0.00 | 0.00 | 43 | 1009.4 |
| 20260508034554 | 7 | 360 | 0.0 | 0.0 | 0.00 | 0.00 | 0.00 | 44 | 1009.5 |
| 20260508034049 | 7 | 360 | 0.0 | 0.0 | 0.00 | 0.00 | 0.00 | 44 | 1009.6 |
| 20260508033549 | 6 | 360 | 1.6 | 0.0 | 0.00 | 0.00 | 0.00 | 44 | 1009.6 |
| 20260508033050 | 6 | 360 | 3.2 | 0.0 | 0.00 | 0.00 | 0.00 | 44 | 1009.6 |
| 20260508032548 | 6 | 360 | 3.2 | 0.0 | 0.00 | 0.00 | 0.00 | 45 | 1009.7 |
| 20260508032048 | 6 | 360 | 1.6 | 0.0 | 0.00 | 0.00 | 0.00 | 45 | 1009.7 |
| 20260508031548 | 6 | 360 | 1.6 | 0.0 | 0.00 | 0.00 | 0.00 | 45 | 1009.7 |
| 20260508031049 | 6 | 360 | 3.2 | 0.0 | 0.00 | 0.00 | 0.00 | 45 | 1009.7 |
| 20260508025548 | 6 | 360 | 1.6 | 0.0 | 0.00 | 0.00 | 0.00 | 41 | 1009.6 |
| 20260508025048 | 7 | 360 | 0.0 | 0.0 | 0.00 | 0.00 | 0.00 | 40 | 1009.5 |
| 20260508024555 | 8 | 360 | 0.0 | 0.0 | 0.00 | 0.00 | 0.00 | 40 | 1009.4 |
| 20260508024048 | 8 | 360 | 0.0 | 0.0 | 0.00 | 0.00 | 0.00 | 35 | 1009.3 |
| 20260508023547 | 9 | 360 | 0.0 | 0.0 | 0.00 | 0.00 | 0.00 | 35 | 1009.3 |
| 20260508023047 | 10 | 360 | 0.0 | 0.0 | 0.00 | 0.00 | 0.00 | 33 | 1009.2 |
| 20260508022547 | 10 | 360 | 0.0 | 0.0 | 0.00 | 0.00 | 0.00 | 31 | 1009.3 |
| 20260508022048 | 11 | 360 | 0.0 | 0.0 | 0.00 | 0.00 | 0.00 | 31 | 1009.2 |
| 20260508021547 | 12 | 360 | 0.0 | 0.0 | 0.00 | 0.00 | 0.00 | 30 | 1009.2 |
| 20260508021046 | 12 | 360 | 0.0 | 0.0 | 0.00 | 0.00 | 0.00 | 29 | 1009.1 |
| 20260508020049 | 13 | 360 | 0.0 | 0.0 | 0.00 | 0.00 | 0.00 | 27 | 1008.9 |
| 20260508015548 | 15 | 360 | 0.0 | 0.0 | 0.00 | 0.00 | 0.00 | 27 | 1009.0 |
| 20260508015048 | 15 | 360 | 0.0 | 0.0 | 0.00 | 0.00 | 0.00 | 27 | 1008.9 |
| 20260508014547 | 15 | 360 | 0.0 | 0.0 | 0.00 | 0.00 | 0.00 | 27 | 1009.1 |
| 20260508014048 | 16 | 360 | 0.0 | 0.0 | 0.00 | 0.00 | 0.00 | 27 | 1009.1 |
| 20260508013546 | 16 | 360 | 1.6 | 0.0 | 0.00 | 0.00 | 0.00 | 25 | 1009.1 |
| 20260508013046 | 16 | 360 | 1.6 | 0.0 | 0.00 | 0.00 | 0.00 | 25 | 1009.1 |
| 20260508012547 | 16 | 360 | 3.2 | 0.0 | 0.00 | 0.00 | 0.00 | 25 | 1009.1 |
| 20260508012049 | 16 | 360 | 4.8 | 0.0 | 0.00 | 0.00 | 0.00 | 25 | 1009.1 |
| 20260508011559 | 17 | 360 | 6.4 | 0.0 | 0.00 | 0.00 | 0.00 | 24 | 1009.1 |
| 20260508011045 | 17 | 360 | 4.8 | 0.0 | 0.00 | 0.00 | 0.00 | 24 | 1009.1 |
| 20260508010056 | 17 | 360 | 6.4 | 0.0 | 0.00 | 0.00 | 0.00 | 24 | 1009.2 |
| 20260508005544 | 17 | 360 | 8.0 | 0.0 | 0.00 | 0.00 | 0.00 | 24 | 1009.2 |
| 20260508005044 | 17 | 360 | 9.7 | 0.0 | 0.00 | 0.00 | 0.00 | 23 | 1009.3 |
| 20260508004555 | 17 | 360 | 11.3 | 0.0 | 0.00 | 0.00 | 0.00 | 23 | 1009.3 |
| 20260508004044 | 18 | 360 | 11.3 | 0.0 | 0.00 | 0.00 | 0.00 | 22 | 1009.3 |
| 20260508003544 | 18 | 360 | 11.3 | 0.0 | 0.00 | 0.00 | 0.00 | 23 | 1009.3 |
| 20260508003045 | 18 | 360 | 9.7 | 0.0 | 0.00 | 0.00 | 0.00 | 23 | 1009.3 |
| 20260508002544 | 18 | 360 | 8.0 | 0.0 | 0.00 | 0.00 | 0.00 | 22 | 1009.4 |
| 20260508002043 | 18 | 360 | 11.3 | 0.0 | 0.00 | 0.00 | 0.00 | 22 | 1009.4 |
| 20260508001545 | 18 | 360 | 11.3 | 0.0 | 0.00 | 0.00 | 0.00 | 22 | 1009.3 |
| 20260508001042 | 18 | 360 | 11.3 | 0.0 | 0.00 | 0.00 | 0.00 | 23 | 1009.3 |
| 20260508000042 | 18 | 360 | 12.9 | 0.0 | 0.00 | 0.00 | 0.00 | 22 | 1009.6 |
| 20260507235542 | 18 | 360 | 12.9 | 0.0 | 0.00 | 0.00 | 0.00 | 22 | 1009.6 |
| 20260507235042 | 18 | 360 | 14.5 | 0.0 | 0.00 | 0.00 | 0.00 | 22 | 1009.6 |
| 20260507234542 | 18 | 360 | 16.1 | 0.0 | 0.00 | 0.00 | 0.00 | 22 | 1009.6 |
| 20260507234041 | 18 | 360 | 14.5 | 0.0 | 0.00 | 0.00 | 0.00 | 22 | 1009.5 |
| 20260507233542 | 17 | 360 | 14.5 | 0.0 | 0.00 | 0.00 | 0.00 | 23 | 1009.5 |
| 20260507233042 | 18 | 360 | 11.3 | 0.0 | 0.00 | 0.00 | 0.00 | 22 | 1009.4 |
| 20260507232540 | 18 | 360 | 11.3 | 0.0 | 0.00 | 0.00 | 0.00 | 22 | 1009.4 |
| 20260507232040 | 18 | 360 | 11.3 | 0.0 | 0.00 | 0.00 | 0.00 | 21 | 1009.6 |
| 20260507231541 | 17 | 360 | 6.4 | 0.0 | 0.00 | 0.00 | 0.00 | 21 | 1009.8 |
| 20260507231038 | 17 | 360 | 4.8 | 0.0 | 0.00 | 0.00 | 0.00 | 20 | 1009.8 |
| 20260507230038 | 17 | 360 | 8.0 | 0.0 | 0.00 | 0.00 | 0.00 | 21 | 1009.8 |
| 20260507225538 | 17 | 360 | 12.9 | 0.0 | 0.00 | 0.00 | 0.00 | 21 | 1009.8 |